Location: Haskovo
(41.9227°N, 25.5707°E)
Time: 22:33:47
(UTC+03:00)

ISS - Pass Details

Date: 19 May 2025
Orbit: 415 x 416 km, 51.6° (Epoch: 16 June)

Event Time Altitude Azimuth Distance (km) Brightness Sun altitude
Rises 21:40:15 0° 302° (WNW) 2,361 2.1 -10.8°
Reaches altitude 10° 21:42:57 10° 325° (NW) 1,496 0.4 -11.2°
Maximum altitude 21:45:08 16° 5° (N) 1,183 -1.0 -11.5°
Drops below altitude 10° 21:47:18 10° 46° (NE) 1,494 -1.0 -11.8°
Enters shadow 21:49:40 - 67° (ENE) 2,240 -0.3 -12.2°
